Location: Brissac
(47.3500°N, 0.4500°W)
Time: 16:30:34
(UTC+02:00)

ISS - Pass Details

Date: 22 May 2021
Orbit: 419 x 422 km, 51.6° (Epoch: 25 June)

Event Time Altitude Azimuth Distance (km) Brightness Sun altitude
Rises 22:47:25 0° 277° (W) 2,370 1.0 -9.7°
Reaches altitude 10° 22:49:37 10° 286° (WNW) 1,506 0.1 -9.9°
Maximum altitude 22:52:48 38° 356° (N) 658 -2.3 -10.3°
Drops below altitude 10° 22:56:00 10° 67° (ENE) 1,508 -1.1 -10.7°
Enters shadow 22:58:17 - 76° (ENE) 2,404 -0.2 -10.9°
